Wind_Speed
109 109 109 108 107 106 105 104 103 102 101 100 99 98 97 97 96 95 94 93 92 91 91 91 90 90 90 90 89 89 88 87 87 86 85 84 83 82 80 79 77 76 74 72 71 69 67 65 64 62 60 58 56 55 53 51 49 47 45 44 43 42 41 41 41 41 41 41 41 41 41 41 40 40 40 40 40 41 41 42 43 44 44 45 45 45
108 108 107 106 105 105 104 103 102 100 99 99 98 97 96 95 95 94 93 92 91 91 90 90 90 90 90 89 89 88 87 86 86 85 84 83 81 80 79 77 76 74 72 71 69 67 65 64 62 60 59 57 55 53 51 49 47 45 44 43 42 41 40 40 41 41 41 41 41 41 41 40 40 40 40 40 40 41 42 43 44 45 45 46 46 46
107 107 106 105 104 103 103 102 101 100 99 98 97 96 95 94 93 92 91 91 90 90 90 90 90 90 89 89 88 87 86 85 84 83 82 81 80 78 77 75 74 72 70 69 67 65 64 62 60 59 57 55 53 51 49 47 45 44 43 42 41 40 40 40 41 41 41 41 41 41 41 40 40 40 40 40 41 41 42 43 44 45 46 46 46 46
107 106 105 104 103 103 102 101 100 99 98 97 95 94 93 92 91 91 90 90 90 90 90 90 90 89 89 88 87 86 85 84 83 82 81 79 78 77 75 74 72 70 69 67 65 64 62 60 58 57 55 53 51 49 47 46 44 43 42 41 40 40 40 41 41 41 41 41 41 41 41 40 40 40 40 41 41 42 43 44 45 46 46 47 47 47
106 105 104 104 103 102 101 100 98 97 96 95 94 93 92 91 91 90 90 90 90 90 90 90 89 89 88 87 86 86 84 83 82 81 79 78 76 75 73 72 70 68 67 65 63 62 60 58 56 55 53 51 49 47 46 44 43 42 41 40 40 40 40 41 41 41 42 42 41 41 41 40 40 40 41 41 41 42 43 44 45 46 47 47 47 47
106 105 104 103 102 101 100 98 97 96 95 94 93 92 91 91 91 90 90 90 90 90 90 89 89 88 87 86 86 84 83 82 81 79 78 76 75 73 71 70 68 66 65 63 62 60 58 56 55 53 51 49 47 46 44 43 41 41 40 40 40 40 41 41 41 42 42 41 41 41 40 40 41 41 41 41 42 43 44 45 46 47 47 48 48 47
106 105 103 102 101 99 98 97 96 94 93 93 92 92 92 91 91 91 90 90 90 90 89 89 88 87 87 86 85 83 82 81 79 78 76 74 73 71 69 68 66 65 63 61 60 58 56 54 53 51 49 47 46 44 43 41 41 40 40 40 40 40 41 41 42 42 42 41 41 41 41 41 41 41 41 42 43 44 45 46 47 47 48 48 48 47
106 104 103 101 99 98 97 96 95 94 93 93 92 92 92 92 91 91 91 90 90 89 89 88 88 87 86 85 83 82 81 79 77 76 74 73 71 69 68 66 64 63 61 59 58 56 54 53 51 49 47 46 44 43 41 41 40 40 40 40 40 41 41 42 42 42 41 41 41 41 41 41 41 41 42 42 43 44 45 47 47 48 48 48 48 47
105 103 102 100 98 97 96 96 95 94 93 93 92 92 92 92 92 91 91 90 89 89 88 87 86 86 85 83 82 80 79 77 76 74 72 71 69 67 66 64 63 61 59 58 56 54 53 51 49 47 46 44 43 41 41 40 40 40 40 40 41 41 42 42 42 42 41 41 41 41 41 41 41 42 42 43 44 45 47 48 48 49 49 49 48 47
103 102 101 100 98 97 96 96 96 95 94 93 92 92 91 91 91 91 90 90 89 88 87 86 85 84 83 82 81 79 77 76 74 72 70 69 67 66 64 62 61 59 57 56 54 52 51 49 47 46 44 43 42 41 40 39 39 40 40 41 41 42 42 42 42 41 41 41 41 41 41 42 42 42 43 44 45 47 48 48 49 49 49 49 48 47
103 102 101 100 99 98 96 95 95 94 93 92 92 92 91 91 90 90 89 89 88 87 86 85 84 82 81 80 79 77 75 73 72 70 69 67 65 64 62 61 59 57 56 54 52 51 49 47 46 44 43 41 40 40 39 39 40 40 41 41 42 42 42 42 42 41 41 41 41 42 42 42 42 43 44 45 47 48 49 49 50 50 50 49 48 47
103 101 100 99 98 97 96 95 94 93 92 92 92 92 92 91 90 89 88 88 87 86 85 84 82 81 79 78 76 75 73 71 70 68 67 65 64 62 61 59 57 56 54 52 51 49 47 46 44 42 41 40 40 39 39 40 40 41 41 42 42 42 42 42 42 42 42 42 42 42 42 42 43 44 45 47 48 49 50 50 50 50 50 49 48 47
102 101 99 98 97 96 95 94 93 92 92 91 91 91 91 90 90 88 87 86 85 84 83 82 80 79 77 75 74 72 71 69 68 66 65 63 62 60 59 57 56 54 52 51 49 48 46 44 43 41 40 40 39 39 39 40 40 41 41 42 42 42 42 42 42 42 42 42 42 42 42 43 44 45 47 48 49 50 50 51 51 50 50 49 48 47
101 99 98 97 96 95 94 93 92 92 92 91 91 90 90 89 88 87 86 85 84 82 81 80 78 77 75 73 72 70 68 67 66 64 63 61 60 58 57 55 54 52 51 49 47 46 44 43 41 40 40 39 39 39 40 40 41 41 42 42 42 41 41 42 42 42 42 42 42 42 43 44 45 46 48 49 50 51 51 51 51 50 50 49 48 48
99 98 96 95 95 94 93 92 92 91 91 90 90 89 89 88 87 86 84 83 82 80 79 77 76 75 73 71 69 68 66 65 64 62 61 60 58 57 55 54 52 51 49 47 46 45 43 42 41 40 39 39 39 40 40 41 41 41 41 41 41 41 41 41 42 42 42 42 42 43 44 45 47 48 49 50 51 51 52 52 51 50 50 49 48 48
97 96 95 94 94 93 92 91 91 90 90 89 89 88 87 86 85 84 82 81 80 78 77 75 74 72 71 70 68 66 64 63 62 61 59 58 57 55 53 52 50 49 47 46 45 43 42 41 40 40 39 39 40 40 40 41 41 41 41 41 41 41 41 41 41 42 42 42 43 44 45 47 48 49 50 51 51 52 52 52 51 50 49 49 48 48
96 95 94 93 93 92 92 91 90 89 89 88 87 86 85 84 83 82 80 79 77 76 74 73 71 70 69 68 66 64 62 61 60 59 57 56 55 54 52 50 49 47 46 45 43 42 41 41 40 40 40 40 40 40 40 40 40 40 40 40 41 41 41 41 41 42 42 43 44 46 47 48 49 50 51 52 52 52 52 52 51 50 49 49 49 49
95 94 93 92 92 91 90 90 89 88 87 86 85 84 83 82 81 79 78 77 75 73 72 71 69 68 67 65 64 63 61 59 58 57 56 55 53 52 50 48 47 46 45 43 43 42 41 40 40 40 40 40 40 40 40 40 40 40 40 40 40 41 41 41 42 42 43 44 46 47 48 49 50 51 52 53 53 53 52 52 51 50 50 49 49 49
94 93 92 91 91 90 89 88 87 86 85 84 83 82 81 80 79 77 76 74 73 71 70 69 67 66 65 64 62 61 59 57 56 55 54 53 52 50 49 47 46 45 44 43 42 41 41 40 40 40 39 39 39 39 39 39 40 40 40 40 41 41 41 42 43 44 45 46 47 48 49 50 51 52 53 53 53 53 52 52 51 50 50 50 50 50
92 92 91 90 89 88 87 87 86 84 83 82 81 80 79 78 76 75 74 72 71 69 68 67 66 65 63 62 60 59 57 56 55 54 53 51 50 49 47 46 44 43 43 42 41 41 40 40 40 39 39 39 39 39 39 39 40 40 40 41 41 42 42 43 44 45 46 47 48 50 51 52 52 53 53 54 53 53 52 52 51 51 51 51 51 51
91 90 89 88 87 86 86 85 84 83 81 80 79 78 77 75 74 73 72 70 69 67 66 65 64 63 61 60 59 57 56 54 53 52 51 50 49 47 46 44 43 43 42 41 41 40 39 39 39 39 39 39 39 39 39 40 40 40 41 41 42 43 43 44 45 46 48 49 50 51 52 53 53 54 54 54 53 53 52 52 52 51 52 51 51 51
89 88 88 87 86 85 84 83 82 81 79 78 76 76 74 73 72 71 70 68 67 66 65 63 62 61 60 58 57 56 54 53 52 51 50 49 48 46 45 43 42 42 41 41 40 39 39 39 38 38 39 39 39 39 40 40 41 41 42 42 43 44 45 46 47 48 49 50 51 52 53 54 54 54 54 54 53 53 52 52 52 52 52 52 52 52
87 87 86 85 84 83 82 81 80 78 77 76 75 74 73 71 70 69 68 66 65 64 63 61 60 59 58 56 55 54 53 51 50 49 48 47 46 45 44 42 41 41 40 40 39 39 38 38 38 38 39 39 39 40 40 41 41 42 42 43 44 45 46 47 48 50 51 51 52 53 54 54 54 54 54 54 53 53 53 53 53 53 53 53 53 52
86 85 84 83 82 81 80 79 78 76 75 74 73 72 71 69 68 67 65 64 63 62 60 59 58 57 56 55 53 52 51 50 48 47 46 46 45 44 42 41 40 40 40 39 38 38 38 38 38 39 39 40 40 41 41 42 42 43 43 44 45 46 48 49 50 51 52 53 53 54 54 55 55 54 54 54 53 53 53 54 54 54 54 54 53 53
84 83 82 82 80 79 78 77 75 74 73 72 71 70 68 67 66 64 63 62 61 59 58 57 56 55 54 53 52 50 49 48 47 45 45 44 43 42 41 40 40 39 39 39 38 38 38 38 39 39 40 40 41 41 42 42 43 44 45 46 47 48 49 50 51 52 53 54 54 55 55 55 55 54 54 54 54 54 54 54 55 55 55 54 54 53
82 82 81 79 78 77 76 74 73 72 71 70 68 67 66 65 63 62 61 59 58 57 56 55 54 53 52 51 50 48 47 46 45 44 43 42 42 41 40 39 38 38 38 38 38 38 38 39 39 40 40 41 42 42 43 43 44 45 46 47 48 50 51 51 52 53 54 55 55 55 55 55 55 55 54 54 55 55 55 55 55 55 55 55 54 54
80 79 78 77 76 75 73 72 71 70 68 67 66 64 63 62 60 59 58 57 56 55 54 53 52 51 50 49 48 47 45 44 43 42 41 40 40 39 39 38 37 37 38 38 38 39 39 40 40 41 41 42 42 43 43 44 45 47 48 49 50 51 52 53 53 54 55 55 56 56 55 55 55 55 55 55 55 56 56 56 56 56 56 55 55 54
78 77 76 75 73 72 71 69 68 67 66 64 63 61 60 59 58 57 56 55 53 52 51 50 50 49 48 47 46 45 43 42 41 40 39 38 38 38 37 37 36 37 38 38 39 39 40 40 41 41 42 42 43 44 45 46 47 48 49 50 51 52 53 54 54 55 55 56 56 56 56 56 56 56 56 56 56 57 57 57 57 57 56 56 55 55
76 75 73 72 71 69 68 67 65 64 62 61 60 58 57 56 55 54 53 52 51 50 49 48 47 46 46 45 44 43 41 40 39 37 36 36 36 36 36 36 36 37 38 39 40 40 41 41 42 42 43 43 44 45 47 48 49 50 51 52 52 53 54 55 55 56 56 56 56 56 56 56 56 56 57 57 57 58 58 58 57 57 57 56 56 55
73 72 70 69 68 66 65 63 62 61 59 58 57 55 54 53 52 51 50 49 48 47 47 46 45 44 43 42 41 40 39 37 36 34 34 34 35 35 35 36 37 38 39 40 41 42 42 42 42 43 44 45 46 47 48 49 50 51 52 53 54 54 55 56 56 57 57 57 57 57 57 57 57 57 58 58 58 58 58 58 58 58 57 57 56 55
70 69 67 66 64 63 61 60 59 57 56 55 54 53 51 50 49 48 47 46 45 44 44 43 42 41 40 39 38 37 36 35 33 32 32 34 35 36 36 37 38 39 40 40 41 42 43 44 44 44 45 47 48 49 50 51 52 53 53 54 55 56 56 56 57 57 57 57 57 57 57 58 58 58 58 59 59 59 59 59 58 58 58 57 56 56
67 65 63 62 61 59 58 56 55 54 53 52 50 49 48 47 46 45 44 43 42 41 40 39 38 37 36 35 34 34 33 33 32 32 33 34 36 37 37 38 39 40 41 41 42 43 44 45 45 46 47 48 49 50 51 52 53 54 55 55 56 57 57 57 57 57 57 57 57 58 58 58 59 59 59 59 59 59 59 59 59 58 58 57 56 55
63 61 60 58 57 56 54 53 52 51 50 48 47 46 45 44 42 41 40 39 38 37 36 35 35 34 33 32 32 32 32 33 33 33 34 35 37 38 39 39 40 41 41 42 43 44 45 46 47 48 49 50 51 52 52 53 54 55 56 57 57 57 57 57 57 57 58 58 58 59 59 59 60 60 60 60 60 60 59 59 59 59 58 57 56 55
59 57 56 55 53 52 51 50 48 47 46 45 44 42 41 40 38 37 36 35 34 33 32 32 31 31 31 31 32 33 33 34 34 34 35 37 38 39 39 40 40 41 42 43 44 45 46 47 48 49 50 51 52 53 54 55 56 56 57 57 58 58 58 58 58 58 58 59 59 60 60 60 60 60 60 60 60 60 60 60 59 59 58 57 56 56
55 54 52 51 50 49 47 46 45 44 42 41 40 38 37 35 34 33 32 31 30 30 29 29 30 31 31 32 33 34 35 35 35 36 36 38 39 39 40 41 42 43 44 45 46 47 48 49 50 50 51 52 53 54 55 56 56 57 58 58 58 58 58 58 58 59 59 59 60 60 60 60 61 61 61 60 60 60 60 60 59 58 58 57 56 56
51 50 49 47 46 45 44 42 41 40 38 37 35 34 33 31 30 30 29 28 28 28 28 29 30 31 32 33 34 35 36 36 37 37 38 39 40 41 41 43 44 44 45 47 48 48 49 50 51 52 52 53 54 55 56 56 57 57 58 58 58 58 59 59 59 59 60 60 61 61 61 61 61 61 61 61 61 60 60 60 59 58 58 57 57 56
47 46 45 44 43 41 40 38 37 35 34 33 31 30 29 29 28 28 28 28 28 28 29 30 30 31 32 33 35 36 37 37 38 39 39 40 41 42 43 45 46 46 47 48 49 50 51 52 52 53 54 54 55 56 56 56 57 57 58 58 59 59 59 60 60 60 61 61 61 61 61 61 61 61 61 61 61 60 60 59 59 58 58 57 57 57
44 43 42 40 39 37 36 34 33 32 30 30 29 28 28 28 28 28 28 28 29 29 30 31 31 32 33 34 35 36 38 39 40 41 42 43 43 44 45 46 47 48 48 49 50 51 52 53 54 54 55 55 55 56 56 56 57 58 58 59 59 60 61 61 61 61 61 61 61 62 62 62 62 61 61 61 60 60 60 59 59 58 58 58 58 58
41 40 39 37 36 34 33 31 30 30 29 29 28 28 28 28 28 29 29 29 30 30 31 32 33 34 34 35 37 38 39 40 42 43 44 44 45 46 47 48 48 49 50 50 51 52 53 54 55 55 55 56 56 56 56 56 57 58 59 59 60 61 61 61 62 62 62 62 62 62 62 62 62 61 61 61 60 60 60 59 59 59 59 59 59 59
39 38 37 35 34 33 31 30 29 29 29 29 29 29 29 29 29 29 30 30 31 32 33 34 35 35 37 38 39 40 41 42 43 44 45 46 47 47 48 49 50 50 51 52 52 53 54 54 55 55 55 56 56 56 56 57 57 58 59 60 61 62 62 62 62 62 62 62 62 62 62 62 62 61 61 60 60 60 60 60 60 60 60 60 60 60
38 37 36 34 33 32 30 30 29 29 29 29 29 29 29 30 30 31 31 32 33 34 35 36 36 37 38 39 41 42 43 44 45 45 46 47 48 48 49 50 51 51 52 52 53 53 54 54 55 55 56 56 57 57 57 57 57 58 58 60 61 62 63 63 63 63 62 62 62 62 62 62 61 61 60 60 60 60 60 60 60 61 61 61 60 60
37 35 34 33 32 31 30 29 29 29 29 29 29 30 30 31 31 32 33 34 35 36 37 37 38 39 40 41 42 43 43 44 45 46 47 48 49 49 50 51 51 52 52 53 53 54 54 54 55 56 56 57 57 58 58 58 58 58 58 60 61 62 63 63 63 63 63 63 62 62 62 61 61 61 60 60 60 61 61 61 61 61 61 61 61 60
35 34 33 32 31 30 30 29 29 29 29 30 30 31 32 33 33 34 35 36 37 38 38 39 39 40 41 42 43 43 44 45 46 47 48 48 49 50 50 51 51 52 52 53 54 54 54 55 56 56 57 57 58 59 59 59 58 58 59 60 61 62 64 64 63 63 63 63 62 62 62 61 61 61 61 61 61 61 61 62 61 61 61 61 61 60
34 33 32 31 30 30 30 30 30 30 30 31 32 33 34 34 35 36 36 37 38 39 39 40 40 41 42 43 44 44 45 46 47 47 48 49 49 50 51 51 52 52 53 53 54 55 56 56 56 57 57 58 58 59 59 60 59 60 60 60 61 62 63 64 63 63 63 63 62 62 62 62 62 62 62 62 62 62 62 62 62 61 61 60 60 59
33 32 31 31 31 30 30 30 31 31 32 33 33 34 35 35 36 37 37 38 39 39 40 40 41 42 43 44 44 45 46 47 47 48 48 49 49 50 51 52 52 53 54 54 55 56 56 57 58 58 58 58 59 60 60 61 61 61 61 61 61 62 62 62 63 63 63 63 63 63 63 63 63 63 63 63 63 62 62 62 61 61 60 59 59 58
33 32 32 32 32 32 32 32 32 33 33 34 34 35 36 36 36 37 38 38 39 40 40 41 41 42 43 44 45 45 46 47 47 48 49 49 50 51 52 53 53 54 55 56 56 57 57 58 58 59 59 60 60 60 61 61 61 61 61 61 61 61 62 62 62 63 63 63 64 64 63 63 63 63 63 63 62 62 61 61 60 60 59 58 58 57
33 33 33 33 33 33 33 33 33 34 34 34 35 35 36 36 37 37 38 39 39 40 41 41 42 43 43 44 45 45 46 47 48 49 50 50 51 52 53 54 55 55 56 57 57 58 58 59 59 60 60 61 61 62 61 61 61 62 62 61 61 61 62 62 62 62 63 63 63 63 63 63 63 63 63 62 62 61 60 60 59 58 58 57 57 57
34 34 34 34 34 34 34 34 34 34 35 35 36 36 36 37 37 38 38 39 39 40 41 41 42 43 43 44 45 46 47 48 49 50 51 52 53 53 54 55 56 56 57 58 58 59 60 60 60 61 61 61 62 62 62 62 62 62 62 61 61 61 61 62 62 62 62 62 63 63 63 62 62 62 62 61 61 60 59 58 58 57 57 57 57 56
34 34 34 34 34 34 34 34 34 35 35 36 36 36 36 37 37 37 38 39 39 40 41 42 42 43 44 45 46 47 48 49 50 51 52 53 54 55 55 56 57 58 59 59 60 60 61 61 61 61 61 61 62 63 63 62 62 62 62 61 61 61 61 61 61 61 61 61 62 61 61 61 61 61 61 60 60 59 58 58 57 57 56 56 56 56
34 34 34 34 34 34 34 34 35 35 35 35 36 36 36 37 37 37 38 39 40 40 41 42 43 44 45 46 47 48 49 50 51 52 53 54 55 56 57 57 58 59 60 61 61 62 62 62 62 61 61 61 61 62 63 63 63 62 62 61 61 61 61 61 60 60 60 60 60 60 60 60 60 60 60 60 59 59 58 58 57 56 56 56 55 56
33 34 34 34 34 34 34 34 34 35 35 35 36 36 36 37 37 38 39 39 40 41 43 44 45 46 47 48 49 50 51 52 53 53 54 55 55 56 57 58 59 60 61 62 62 62 63 63 63 62 61 61 61 61 62 63 63 62 62 61 61 60 60 60 59 59 59 59 59 59 59 59 59 59 59 59 59 59 58 58 57 56 55 55 55 55
Wind_Direction
294 294 294 295 295 295 295 295 295 295 295 295 295 295 295 296 296 296 296 296 297 297 297 297 297 297 297 298 298 298 298 299 299 299 299 300 300 300 300 300 300 300 300 300 300 300 299 299 299 298 298 297 296 296 295 294 292 291 289 287 285 283 282 281 280 280 280 280 281 282 283 284 286 287 288 289 290 292 294 296 298 300 301 302 303 303
294 294 294 294 294 294 294 294 294 294 295 295 295 295 295 295 296 296 296 296 296 296 296 296 297 297 297 297 297 298 298 298 299 299 299 299 300 300 300 300 300 300 300 300 299 299 299 298 298 297 297 296 295 295 294 292 291 289 287 285 283 281 280 279 278 278 279 279 280 281 282 284 286 287 288 289 291 293 295 297 299 300 301 302 302 302
293 293 293 293 293 294 294 294 294 294 295 295 295 295 295 295 295 296 296 296 296 296 296 296 296 297 297 297 298 298 298 299 299 299 299 299 299 299 300 300 299 299 299 299 299 298 298 298 297 297 296 295 295 294 292 291 289 287 285 283 281 279 278 278 277 277 278 279 280 281 283 284 286 287 288 289 291 293 295 297 299 300 301 302 302 302
293 293 293 293 293 293 294 294 294 295 295 295 295 295 295 295 295 295 295 295 295 295 296 296 296 297 297 297 298 298 298 299 299 299 299 299 299 299 299 299 299 299 299 298 298 298 297 297 296 296 295 294 293 292 291 289 287 285 283 281 279 278 277 277 277 277 278 279 280 281 283 285 286 287 288 289 291 293 295 297 299 300 301 302 302 302
292 292 293 293 293 294 294 294 295 295 295 295 295 294 294 294 294 294 295 295 295 295 296 296 296 297 297 298 298 298 299 299 299 299 299 299 299 299 299 298 298 298 298 298 297 297 297 296 295 295 294 293 292 291 289 287 285 283 281 280 278 277 276 276 277 277 278 279 281 282 283 285 286 287 288 289 291 293 295 297 298 300 300 301 301 301
292 292 293 293 294 294 294 294 294 294 294 294 294 294 293 294 294 294 294 295 295 296 296 296 297 297 297 298 298 298 298 299 299 299 298 298 298 298 298 298 298 297 297 297 296 296 296 295 294 294 293 292 291 289 287 285 283 281 279 278 277 276 276 276 276 277 278 279 281 283 284 285 286 287 288 290 291 293 295 297 298 299 300 301 301 300
292 293 293 293 294 294 294 293 293 293 293 293 293 293 293 293 294 294 295 295 296 296 296 297 297 297 298 298 298 298 298 298 298 298 298 298 298 297 297 297 297 296 296 296 296 295 295 294 293 293 292 290 289 287 285 283 281 279 277 276 275 275 275 275 276 277 278 280 282 283 284 285 286 287 288 290 292 294 295 297 298 299 300 300 300 300
293 293 293 293 293 293 293 292 292 292 292 292 293 293 294 294 294 295 295 296 296 296 297 297 297 297 297 298 298 298 298 298 298 297 297 297 297 297 296 296 296 295 295 295 295 294 294 293 292 291 290 289 287 285 283 281 279 277 276 275 274 274 275 275 276 277 279 281 282 283 284 285 286 287 289 290 292 294 295 297 298 299 299 299 299 299
292 292 292 292 292 292 292 291 292 292 292 293 293 294 294 295 295 295 296 296 296 296 297 297 297 297 297 297 297 297 297 297 297 297 297 296 296 296 295 295 295 295 294 294 294 293 293 292 291 290 288 287 285 283 281 279 277 276 275 274 274 274 274 275 277 278 280 281 283 283 284 285 286 287 289 291 292 294 295 297 298 298 299 299 298 298
291 291 291 291 291 291 291 292 292 292 293 293 294 294 295 295 295 296 296 296 296 296 296 296 297 297 297 297 297 297 297 296 296 296 296 295 295 295 295 294 294 294 294 293 293 292 291 291 289 288 286 285 283 281 278 277 275 274 274 273 274 274 275 276 277 279 281 282 283 284 284 285 287 288 290 291 293 294 296 297 298 298 298 298 298 297
290 290 290 291 291 291 292 292 293 293 294 294 294 295 295 295 295 295 295 296 296 296 296 296 296 296 296 296 296 296 296 296 295 295 295 295 294 294 294 294 293 293 293 292 292 291 290 289 288 286 284 282 280 278 276 275 274 273 273 273 273 274 275 277 279 280 281 282 283 284 285 286 287 289 290 292 293 294 295 297 297 298 298 297 297 297
290 290 291 291 291 292 292 293 293 294 294 294 295 295 295 295 295 295 295 295 295 295 296 296 295 295 295 295 295 295 295 295 294 294 294 294 293 293 293 293 292 292 292 291 290 290 289 287 286 284 282 280 278 276 275 273 273 272 273 273 274 275 276 278 279 281 282 283 283 284 285 286 287 289 290 292 293 294 295 296 297 297 297 297 296 296
290 291 291 292 292 292 293 293 294 294 294 294 294 294 294 294 295 295 295 295 295 295 295 295 295 295 295 295 294 294 294 294 293 293 293 293 292 292 292 292 291 291 291 290 289 288 287 285 284 282 280 278 276 274 273 272 272 272 273 274 275 276 277 279 280 281 282 283 284 284 285 287 288 289 291 292 293 294 295 296 297 296 296 296 296 296
291 291 292 292 292 293 293 293 294 294 294 294 294 294 294 294 294 294 294 294 294 294 294 294 294 294 294 294 294 293 293 293 292 292 292 292 291 291 291 291 290 290 289 288 287 286 285 283 282 280 278 276 274 273 272 272 272 273 273 274 276 277 278 279 280 281 282 283 284 285 286 287 288 289 291 292 293 294 295 296 296 296 296 295 295 295
291 291 292 292 292 293 293 293 293 293 293 293 293 293 293 293 294 294 294 294 294 294 294 294 293 293 293 293 292 292 292 291 291 291 291 290 290 290 290 290 289 289 288 287 286 284 283 282 280 278 276 274 273 272 272 272 273 273 274 275 276 277 279 280 281 282 282 283 284 285 286 287 288 289 291 292 293 294 295 295 295 295 295 294 295 295
291 291 292 292 292 292 292 292 292 292 293 293 293 293 293 293 293 293 293 293 293 293 293 293 293 293 292 292 291 291 291 290 290 290 290 289 289 289 289 288 288 287 286 285 284 282 281 280 278 276 275 274 273 273 273 273 274 274 275 276 277 278 279 281 281 282 283 283 284 285 286 287 288 289 291 292 293 294 294 295 294 294 294 294 294 295
291 291 291 292 292 292 292 292 292 292 292 292 292 292 292 292 293 293 293 293 293 293 292 292 292 292 291 291 291 290 290 289 289 289 288 288 288 288 287 287 286 285 284 283 282 281 279 278 277 276 275 274 274 274 274 274 275 275 276 277 278 279 280 281 282 282 283 283 284 285 286 287 289 290 291 292 293 294 294 294 294 294 294 294 294 295
291 291 291 291 291 291 291 291 291 292 292 292 292 292 292 292 292 292 292 292 292 292 292 291 291 290 290 290 289 289 289 288 288 287 287 287 286 286 286 285 284 283 282 281 280 279 278 277 276 275 275 275 274 275 275 275 276 276 277 278 279 280 281 282 282 282 283 283 284 285 287 288 289 290 292 293 293 294 294 294 293 293 293 293 294 294
290 290 290 290 291 291 291 291 291 291 291 291 292 292 292 292 291 291 291 291 291 291 291 290 290 289 289 288 288 288 288 287 286 286 285 285 285 285 284 283 282 282 281 280 279 278 277 276 276 276 275 275 275 276 276 276 277 278 278 279 280 281 282 282 282 283 283 284 285 286 287 289 290 291 292 293 293 293 293 293 293 293 293 293 294 294
290 290 290 290 290 290 290 291 291 291 291 291 291 291 291 291 291 291 291 291 290 290 290 289 288 288 288 287 287 287 286 286 285 285 284 284 284 283 283 282 281 280 279 278 278 277 276 276 276 276 276 276 276 277 277 278 278 279 280 281 281 282 282 282 283 283 284 284 285 287 288 289 290 291 292 293 293 293 293 293 293 292 293 293 294 294
289 290 290 290 290 290 290 290 290 291 291 291 291 291 291 290 290 290 290 290 289 289 288 288 287 287 287 286 286 285 285 284 284 283 283 283 282 282 281 280 280 279 278 277 277 277 276 276 276 276 276 277 277 278 278 279 279 280 280 281 281 282 282 282 283 283 284 285 286 287 289 290 291 292 292 293 292 292 292 292 292 293 293 294 294 294
289 290 290 290 290 290 290 290 290 290 291 291 290 290 290 290 290 290 289 289 288 288 287 287 286 286 285 285 285 284 284 283 283 282 282 282 281 281 280 279 279 278 277 277 276 276 276 276 276 277 277 278 278 279 279 280 280 280 281 281 282 282 282 282 283 284 285 286 287 288 289 290 291 292 292 292 292 292 292 292 292 293 293 294 294 294
289 289 289 289 290 290 290 290 290 290 290 290 290 289 289 289 289 289 288 288 287 287 286 286 285 285 284 284 283 283 283 282 282 281 281 281 280 280 279 279 278 277 277 276 276 276 276 277 277 277 278 278 279 279 279 279 280 280 281 281 281 282 282 283 283 284 285 287 288 289 290 291 291 292 292 292 291 291 291 292 292 293 293 294 294 294
289 289 289 289 289 290 290 290 290 290 290 289 289 289 289 288 288 288 287 287 286 286 285 285 284 284 283 283 282 282 282 281 281 281 280 280 280 279 279 278 277 277 277 276 277 277 277 277 278 278 279 279 279 279 279 279 280 280 281 281 281 282 282 283 284 285 286 288 289 290 290 291 291 291 291 291 291 291 292 292 292 293 293 294 294 294
289 289 289 289 289 289 290 290 289 289 289 289 288 288 288 287 287 287 286 286 285 284 284 283 283 282 282 282 281 281 281 281 280 280 279 279 279 279 278 278 277 277 277 277 277 278 278 278 279 279 279 279 279 279 279 280 280 280 281 281 282 282 283 284 285 286 287 288 289 290 291 291 291 291 291 291 291 291 292 292 293 293 293 293 294 293
288 288 289 289 289 289 289 289 289 289 288 288 288 287 287 287 286 286 285 284 284 283 283 282 282 282 281 281 281 280 280 280 279 279 278 278 278 278 278 277 277 278 278 278 278 279 279 279 279 279 279 279 279 279 280 280 280 281 281 281 282 283 284 285 286 287 288 289 290 290 291 291 291 291 291 291 291 292 292 292 293 293 293 293 293 293
288 288 288 289 289 289 289 288 288 288 288 287 287 286 286 286 285 284 284 283 283 282 282 281 281 281 281 280 280 279 279 279 278 278 278 278 278 278 278 278 278 278 279 279 279 279 279 279 279 279 279 279 279 280 280 280 280 281 281 282 282 283 284 285 287 288 289 290 290 290 290 290 290 291 291 291 291 292 292 293 293 293 293 293 293 293
288 288 288 288 288 288 288 288 287 287 287 286 286 286 285 285 284 283 283 283 282 282 281 281 280 280 280 280 279 279 279 278 278 278 277 278 278 278 278 278 278 279 280 280 280 279 279 279 279 279 279 280 280 280 280 280 280 281 281 282 283 284 285 286 288 288 289 290 290 290 290 290 290 290 291 291 292 292 292 293 293 293 293 293 292 292
288 288 288 288 288 287 287 287 286 286 286 285 285 285 284 284 283 283 282 282 282 281 280 280 280 280 280 280 279 279 279 278 277 277 278 278 278 278 278 279 279 279 280 280 280 280 279 279 279 279 280 279 279 280 279 280 280 281 282 283 284 285 286 287 288 289 289 290 290 290 290 290 290 291 291 292 292 292 292 292 293 293 292 292 292 292
287 287 287 287 287 287 286 286 286 285 285 285 284 284 283 283 282 282 282 281 281 280 280 280 280 279 280 280 280 280 279 278 277 277 277 278 278 279 279 279 279 279 280 280 280 280 280 279 279 279 279 279 279 279 279 280 281 282 283 284 285 286 287 288 289 289 289 289 290 290 290 290 290 291 291 292 292 292 292 292 292 292 292 292 291 291
287 287 287 286 286 286 285 285 285 284 284 284 284 283 283 282 282 282 281 281 280 280 280 280 280 280 280 280 280 280 280 278 277 276 277 278 278 279 279 279 279 279 279 279 280 280 280 279 279 278 278 278 279 279 280 281 282 283 284 285 286 287 288 288 289 289 289 289 289 290 290 290 291 291 291 292 292 292 292 292 292 292 292 291 291 290
286 286 286 285 285 285 284 284 284 284 284 283 283 283 283 282 282 281 281 281 280 280 280 280 280 280 280 280 280 280 280 279 277 276 276 277 278 278 277 278 278 278 278 278 278 279 279 279 278 278 278 278 279 280 281 282 283 284 285 286 287 288 288 288 289 289 289 289 289 290 290 290 291 291 291 291 292 292 291 291 291 291 291 291 290 290
285 285 285 284 284 284 284 284 284 283 283 283 283 282 282 282 281 281 281 280 280 280 279 279 279 279 279 279 279 279 279 278 276 275 275 276 276 276 276 276 277 277 277 277 277 276 277 277 277 278 278 279 280 281 282 283 284 285 286 287 287 288 288 288 288 289 289 289 289 290 290 290 291 291 291 291 291 291 291 291 291 291 290 290 289 289
284 284 284 284 284 283 283 283 283 283 283 282 282 282 281 281 281 280 279 279 278 278 277 277 278 278 279 279 279 278 277 275 274 273 273 274 274 274 275 275 275 275 275 275 275 275 275 276 276 278 279 280 281 282 283 285 285 286 287 287 287 288 288 288 288 288 289 289 289 290 290 290 291 291 291 291 291 291 291 291 291 290 290 289 289 288
283 283 283 283 283 283 283 283 282 282 282 281 281 281 280 280 279 278 277 276 276 275 274 274 274 276 276 277 278 277 276 273 272 271 271 272 273 273 273 273 273 273 274 274 274 275 275 276 277 279 280 282 283 284 285 285 286 287 287 287 287 287 288 288 288 288 289 289 290 290 290 290 290 291 291 291 291 291 291 291 290 290 289 289 288 288
283 283 283 283 283 282 282 282 281 281 280 280 279 278 278 277 276 275 274 273 272 271 271 271 270 271 271 273 274 274 273 272 271 270 270 270 271 272 272 272 272 273 273 274 275 276 277 278 280 281 282 283 284 285 285 286 286 286 287 287 287 287 288 288 288 289 289 289 290 290 290 290 290 290 291 291 291 291 290 290 290 289 289 288 288 287
282 282 282 282 281 281 280 280 279 278 278 277 276 275 274 273 273 272 271 270 269 269 268 268 267 267 267 268 269 270 270 270 269 269 269 269 270 271 272 272 273 274 275 276 277 279 280 281 282 283 283 284 285 285 286 286 286 286 287 287 287 288 288 288 289 289 289 289 290 290 290 290 290 290 290 290 290 290 290 289 289 289 288 288 288 287
281 280 280 279 279 278 277 276 275 275 274 273 272 272 271 270 269 269 268 267 266 266 266 266 265 265 265 265 266 266 267 267 268 268 268 269 269 271 272 273 274 275 277 278 280 281 282 283 283 284 284 284 284 285 285 286 286 287 287 287 288 288 289 289 289 289 289 289 290 290 290 290 290 290 290 290 290 290 289 289 288 288 288 288 287 287
278 278 277 276 275 274 273 272 271 270 270 270 269 269 268 267 266 265 265 264 264 264 264 264 264 264 264 264 264 265 265 266 267 267 268 269 270 272 274 275 277 278 280 281 282 283 283 283 284 284 284 284 284 285 285 285 286 287 287 288 288 288 289 289 289 289 289 289 290 290 290 290 290 290 290 290 289 289 289 288 288 288 288 288 288 287
275 274 273 272 271 270 269 268 268 267 268 267 267 266 266 265 264 264 263 262 262 262 262 262 262 262 263 263 264 265 265 266 267 269 270 272 274 275 277 278 280 281 282 282 283 283 283 284 284 284 284 284 285 285 285 286 286 287 288 288 289 289 289 289 289 289 289 289 290 290 290 290 290 290 289 289 289 289 288 288 288 288 288 288 288 288
273 272 271 270 269 268 266 266 266 266 266 266 266 266 265 264 264 263 262 262 261 261 261 261 262 262 263 264 265 266 267 269 271 273 274 276 277 279 280 281 281 282 283 283 283 283 283 284 284 284 284 285 285 286 286 286 287 287 288 288 289 289 289 289 289 289 290 290 290 290 290 290 290 289 289 289 289 288 288 288 288 288 288 288 288 288
271 270 269 268 267 266 265 265 266 266 266 266 265 265 264 263 263 263 262 262 262 262 262 263 264 265 267 268 269 270 272 274 275 277 278 279 280 281 281 282 282 283 283 283 283 284 284 284 285 285 285 286 286 287 287 287 288 288 288 288 289 289 289 289 289 290 290 290 290 290 290 290 289 289 289 289 288 288 288 288 288 288 288 288 288 288
269 268 268 267 266 265 265 265 265 265 265 265 264 264 264 264 263 263 263 264 264 265 266 267 268 270 271 272 274 275 276 277 278 279 280 281 281 282 282 283 283 283 283 284 284 284 285 285 285 286 286 287 287 288 288 288 289 289 289 289 289 290 290 290 290 290 290 290 290 290 290 290 289 289 289 288 288 288 288 288 288 288 288 288 288 288
268 267 266 265 264 264 263 263 263 263 263 263 263 263 264 265 265 265 266 267 268 269 270 272 273 274 275 276 277 278 279 280 280 281 281 282 282 283 283 283 283 284 284 285 285 286 286 286 287 287 288 288 289 289 289 289 290 290 290 290 290 290 290 290 291 291 291 290 290 290 290 289 289 289 289 288 288 288 288 288 288 288 288 288 288 288
265 264 263 262 261 261 260 260 261 261 262 262 262 263 265 266 267 268 268 270 271 273 274 275 276 277 278 279 279 280 281 281 282 282 282 283 283 283 284 284 285 285 286 286 287 287 288 288 288 289 289 289 290 290 290 290 291 290 290 290 290 290 290 290 290 291 291 290 290 290 290 289 289 289 289 288 288 288 288 288 288 288 288 288 288 287
262 261 260 259 258 258 258 259 260 260 261 262 263 264 266 267 269 270 271 273 274 275 276 278 278 279 279 280 281 281 282 282 283 283 283 284 284 285 285 286 286 287 288 288 288 289 289 289 290 290 291 291 291 291 291 291 291 291 291 291 290 290 290 290 290 290 290 290 290 290 290 289 289 289 289 288 288 288 288 288 288 288 288 288 288 287
260 259 259 258 258 258 259 260 261 261 262 263 265 267 269 270 272 273 274 275 276 277 278 279 279 280 280 281 282 282 283 283 284 284 285 285 286 287 287 288 288 289 289 290 290 290 290 291 291 291 292 292 292 291 291 291 291 291 291 291 291 291 291 290 290 290 290 290 290 290 290 289 289 289 288 288 288 288 288 288 288 288 288 288 287 287
262 261 261 261 261 261 262 263 264 265 266 267 269 270 272 273 274 275 276 277 278 279 279 280 280 281 281 282 283 283 284 284 285 286 287 287 288 288 289 289 290 290 291 291 291 291 291 291 292 292 292 292 292 292 292 291 291 291 291 291 291 291 291 291 290 290 290 290 290 290 290 289 289 289 289 289 288 288 288 288 288 288 288 287 287 287
264 264 264 264 264 265 265 266 267 268 269 270 271 273 274 275 276 277 278 279 279 280 280 281 281 282 282 283 284 285 285 286 287 288 288 289 289 290 290 291 291 291 292 292 292 292 292 292 292 292 292 292 292 292 292 292 292 291 291 291 291 291 291 291 291 290 290 290 290 290 290 289 289 289 289 289 289 289 288 288 288 288 288 287 287 287
266 266 266 266 267 267 268 269 269 270 271 272 273 274 276 276 277 278 279 279 280 281 281 282 283 283 284 285 286 287 287 288 288 289 289 290 290 291 291 292 292 292 292 292 292 292 292 292 292 292 292 292 292 292 292 292 292 292 292 292 292 292 291 291 291 291 290 290 290 290 290 290 290 290 290 289 289 289 289 289 288 288 288 288 287 287
267 267 267 267 268 268 269 270 271 272 273 274 275 276 277 278 278 279 280 280 281 282 283 283 284 285 286 287 287 287 288 288 289 289 290 290 291 291 291 292 292 292 292 293 293 293 293 293 292 292 292 292 292 292 292 292 292 292 292 292 292 292 292 292 292 291 291 291 291 291 291 290 290 290 290 290 290 290 289 289 289 289 288 288 288 288
Height
10558 10555 10553 10551 10549 10547 10544 10543 10542 10541 10538 10535 10534 10532 10530 10529 10525 10524 10522 10520 10517 10515 10514 10511 10510 10508 10507 10505 10503 10502 10500 10498 10496 10494 10492 10490 10489 10487 10485 10484 10482 10480 10479 10477 10476 10474 10473 10472 10471 10470 10469 10468 10467 10465 10464 10464 10462 10462 10460 10460 10459 10459 10459 10458 10458 10457 10457 10457 10457 10457 10457 10457 10457 10456 10456 10455 10455 10454 10454 10452 10452 10451 10450 10449 10448 10447
10552 10549 10547 10545 10544 10541 10538 10537 10535 10534 10532 10529 10527 10525 10524 10522 10519 10517 10515 10514 10512 10510 10508 10505 10504 10502 10500 10499 10497 10496 10494 10492 10490 10489 10487 10485 10483 10481 10479 10478 10476 10475 10474 10472 10470 10469 10468 10467 10465 10465 10464 10463 10462 10461 10460 10459 10459 10457 10457 10457 10456 10455 10455 10455 10454 10454 10454 10454 10454 10454 10453 10453 10453 10453 10452 10452 10451 10450 10450 10449 10448 10447 10446 10445 10444 10443
10546 10544 10541 10539 10537 10535 10532 10530 10529 10527 10525 10523 10520 10519 10517 10515 10513 10511 10509 10507 10505 10504 10502 10500 10498 10496 10495 10493 10492 10490 10489 10487 10485 10483 10481 10479 10477 10475 10474 10472 10471 10469 10468 10467 10465 10464 10463 10462 10461 10460 10459 10458 10457 10456 10455 10455 10454 10454 10453 10452 10452 10452 10452 10451 10451 10450 10450 10450 10450 10450 10450 10450 10449 10449 10449 10448 10447 10447 10446 10445 10444 10443 10442 10441 10440 10439
10540 10538 10535 10533 10531 10529 10527 10524 10522 10520 10518 10516 10514 10512 10510 10509 10507 10505 10504 10502 10500 10498 10495 10494 10492 10490 10489 10487 10485 10484 10482 10481 10479 10477 10475 10474 10472 10470 10469 10467 10465 10464 10463 10462 10460 10459 10458 10457 10456 10455 10454 10454 10452 10452 10451 10450 10450 10449 10449 10449 10449 10448 10448 10447 10447 10447 10447 10447 10447 10447 10447 10446 10446 10445 10445 10445 10444 10443 10442 10442 10440 10440 10439 10437 10437 10435
10534 10532 10530 10527 10525 10523 10520 10518 10516 10514 10512 10510 10508 10506 10505 10503 10501 10499 10498 10496 10494 10492 10490 10488 10486 10485 10483 10481 10480 10478 10477 10475 10474 10472 10470 10468 10467 10465 10464 10462 10460 10459 10458 10457 10455 10454 10454 10452 10452 10450 10450 10449 10448 10447 10447 10446 10445 10445 10445 10445 10444 10444 10444 10444 10444 10444 10443 10443 10443 10443 10443 10443 10442 10442 10442 10441 10440 10440 10439 10438 10437 10436 10435 10434 10433 10432
10527 10526 10524 10522 10519 10517 10514 10512 10510 10508 10506 10504 10502 10500 10499 10497 10495 10494 10492 10490 10488 10486 10484 10482 10480 10479 10477 10475 10474 10472 10470 10469 10467 10466 10464 10463 10461 10460 10459 10457 10455 10454 10453 10452 10450 10450 10449 10448 10447 10446 10445 10444 10444 10443 10442 10442 10442 10441 10441 10441 10440 10440 10440 10440 10440 10440 10440 10440 10440 10440 10439 10439 10439 10439 10438 10437 10437 10436 10435 10435 10434 10432 10432 10430 10429 10428
10520 10519 10518 10515 10513 10510 10508 10506 10504 10503 10501 10499 10496 10494 10493 10491 10489 10488 10486 10484 10482 10480 10478 10476 10474 10473 10471 10469 10468 10466 10465 10464 10462 10460 10459 10458 10456 10455 10454 10452 10450 10449 10448 10447 10446 10445 10444 10444 10442 10442 10441 10440 10440 10439 10439 10438 10438 10437 10437 10437 10437 10437 10437 10436 10436 10436 10436 10436 10436 10436 10436 10435 10435 10435 10434 10434 10433 10432 10432 10431 10430 10429 10428 10427 10425 10425
10512 10511 10510 10509 10507 10504 10502 10500 10499 10497 10495 10493 10490 10488 10486 10484 10482 10481 10480 10477 10475 10474 10472 10470 10468 10467 10465 10464 10462 10460 10459 10457 10456 10455 10454 10452 10451 10450 10449 10447 10446 10445 10444 10443 10442 10440 10440 10439 10438 10437 10437 10436 10435 10435 10435 10434 10434 10434 10434 10434 10433 10433 10433 10432 10432 10432 10433 10433 10433 10432 10432 10432 10431 10431 10430 10430 10429 10429 10428 10427 10426 10425 10424 10423 10422 10421
10506 10504 10503 10502 10500 10499 10496 10494 10492 10490 10489 10487 10484 10482 10480 10477 10475 10474 10472 10471 10469 10468 10467 10464 10462 10460 10459 10457 10456 10455 10453 10452 10450 10449 10448 10447 10445 10445 10444 10442 10442 10440 10439 10439 10437 10437 10435 10435 10434 10434 10433 10432 10432 10431 10430 10430 10430 10430 10430 10430 10429 10429 10429 10429 10429 10429 10429 10429 10429 10429 10429 10428 10427 10427 10427 10426 10425 10425 10424 10423 10422 10421 10420 10419 10418 10417
10499 10498 10496 10495 10493 10492 10490 10487 10485 10483 10482 10480 10478 10475 10474 10472 10469 10467 10465 10464 10462 10462 10460 10459 10457 10455 10453 10452 10450 10449 10448 10446 10445 10444 10443 10442 10440 10439 10439 10437 10437 10436 10435 10434 10433 10432 10431 10430 10430 10429 10429 10428 10428 10427 10427 10427 10427 10426 10426 10426 10425 10425 10425 10425 10425 10425 10426 10425 10425 10425 10425 10424 10424 10423 10422 10422 10421 10420 10420 10419 10418 10417 10416 10415 10414 10414
10492 10491 10489 10487 10485 10484 10482 10480 10479 10477 10475 10473 10470 10468 10467 10465 10464 10462 10459 10457 10456 10455 10454 10452 10451 10449 10447 10445 10444 10444 10442 10441 10439 10439 10437 10437 10435 10434 10434 10432 10432 10431 10430 10430 10429 10428 10427 10427 10426 10425 10425 10424 10424 10424 10424 10423 10423 10423 10422 10422 10422 10422 10422 10422 10422 10422 10422 10422 10422 10422 10421 10420 10420 10419 10419 10418 10417 10417 10415 10415 10414 10413 10412 10411 10410 10409
10485 10484 10482 10480 10478 10476 10475 10473 10472 10470 10468 10466 10464 10461 10459 10458 10457 10456 10454 10452 10450 10449 10447 10446 10445 10444 10442 10440 10439 10437 10437 10435 10434 10433 10432 10431 10430 10429 10429 10428 10427 10427 10426 10425 10424 10424 10423 10422 10422 10422 10421 10420 10420 10420 10420 10419 10419 10419 10419 10419 10419 10419 10419 10419 10419 10419 10419 10419 10418 10418 10417 10417 10416 10415 10415 10414 10414 10412 10412 10411 10410 10409 10408 10407 10406 10405
10478 10476 10475 10473 10471 10469 10468 10466 10465 10463 10461 10459 10457 10455 10452 10451 10450 10449 10448 10446 10444 10443 10442 10440 10438 10437 10437 10435 10434 10432 10431 10430 10429 10428 10427 10426 10425 10425 10424 10423 10422 10422 10421 10420 10420 10419 10419 10419 10418 10418 10417 10417 10417 10417 10416 10416 10415 10415 10415 10415 10415 10415 10415 10415 10415 10415 10415 10415 10414 10414 10414 10413 10412 10412 10410 10410 10409 10409 10407 10407 10406 10405 10404 10403 10402 10401
10470 10469 10468 10466 10464 10462 10461 10460 10458 10456 10454 10452 10451 10449 10447 10445 10444 10442 10441 10440 10438 10437 10436 10434 10432 10431 10430 10430 10429 10427 10426 10425 10424 10423 10422 10421 10420 10420 10419 10419 10418 10417 10417 10416 10415 10415 10415 10415 10414 10414 10414 10414 10413 10413 10413 10412 10412 10412 10412 10412 10412 10412 10412 10412 10412 10412 10412 10411 10410 10410 10409 10409 10408 10407 10407 10406 10405 10404 10404 10403 10402 10400 10400 10399 10398 10397
10464 10462 10460 10459 10457 10455 10454 10453 10452 10449 10447 10445 10444 10443 10440 10439 10437 10436 10435 10434 10432 10431 10430 10428 10427 10425 10425 10424 10424 10422 10421 10420 10419 10418 10417 10416 10415 10415 10415 10414 10413 10413 10412 10412 10411 10411 10410 10410 10410 10410 10410 10410 10410 10409 10409 10409 10409 10409 10409 10409 10409 10409 10409 10409 10409 10408 10408 10407 10407 10406 10405 10405 10404 10404 10403 10402 10401 10400 10399 10399 10397 10397 10395 10395 10394 10393
10457 10455 10454 10452 10450 10449 10447 10447 10445 10443 10441 10439 10438 10436 10434 10432 10431 10430 10429 10427 10426 10425 10424 10422 10421 10420 10419 10418 10418 10417 10416 10415 10414 10413 10412 10411 10410 10410 10410 10410 10409 10408 10408 10407 10407 10407 10407 10407 10407 10406 10406 10406 10406 10405 10405 10405 10405 10405 10405 10405 10405 10405 10405 10405 10405 10404 10404 10404 10403 10402 10402 10401 10400 10399 10399 10398 10397 10396 10395 10394 10394 10392 10392 10390 10390 10389
10450 10449 10447 10445 10444 10442 10440 10440 10439 10437 10435 10433 10431 10430 10429 10427 10425 10424 10422 10421 10420 10419 10418 10417 10415 10414 10413 10412 10412 10412 10412 10410 10409 10408 10407 10407 10406 10405 10405 10405 10404 10404 10404 10403 10403 10402 10402 10402 10402 10402 10402 10402 10402 10402 10402 10402 10402 10402 10402 10402 10402 10402 10402 10401 10401 10400 10400 10399 10399 10398 10397 10397 10396 10395 10394 10394 10392 10392 10390 10390 10389 10388 10387 10386 10385 10385
10443 10442 10440 10439 10437 10435 10434 10433 10431 10430 10428 10427 10425 10424 10422 10420 10419 10418 10416 10415 10414 10413 10412 10411 10410 10409 10408 10407 10406 10406 10407 10405 10404 10403 10402 10402 10401 10401 10401 10401 10400 10400 10399 10399 10399 10399 10399 10399 10399 10399 10399 10399 10399 10398 10398 10398 10398 10398 10399 10398 10398 10398 10398 10397 10397 10396 10395 10395 10394 10394 10393 10392 10391 10390 10390 10389 10388 10387 10386 10385 10384 10384 10383 10382 10381 10380
10436 10435 10434 10432 10430 10429 10427 10426 10425 10423 10422 10420 10419 10417 10415 10414 10413 10412 10410 10409 10409 10407 10407 10405 10404 10403 10403 10402 10401 10401 10401 10400 10399 10399 10398 10397 10397 10397 10397 10397 10396 10395 10395 10395 10395 10395 10395 10394 10394 10395 10394 10394 10394 10394 10394 10394 10394 10394 10394 10394 10394 10394 10394 10393 10392 10392 10392 10390 10390 10389 10389 10387 10387 10386 10385 10384 10383 10382 10381 10380 10380 10379 10378 10377 10377 10376
10429 10428 10427 10425 10424 10422 10420 10419 10418 10417 10415 10414 10412 10411 10409 10407 10407 10405 10404 10404 10402 10402 10401 10400 10399 10397 10397 10397 10396 10396 10396 10395 10395 10394 10393 10393 10392 10392 10392 10392 10392 10391 10391 10391 10391 10391 10391 10390 10390 10390 10390 10390 10390 10390 10390 10390 10390 10390 10390 10390 10390 10390 10389 10389 10388 10387 10387 10386 10385 10385 10384 10383 10382 10382 10380 10379 10379 10377 10377 10376 10375 10374 10374 10373 10372 10372
10422 10420 10419 10419 10417 10415 10413 10412 10411 10410 10409 10408 10406 10405 10403 10402 10400 10399 10399 10398 10397 10396 10395 10394 10393 10392 10392 10392 10391 10391 10391 10390 10390 10389 10389 10389 10388 10388 10388 10388 10388 10387 10387 10387 10387 10387 10387 10387 10387 10387 10387 10387 10387 10387 10387 10387 10387 10387 10386 10386 10385 10385 10385 10384 10384 10383 10382 10382 10381 10380 10379 10379 10378 10377 10376 10375 10374 10373 10372 10371 10370 10370 10369 10368 10367 10367
10415 10414 10412 10412 10410 10409 10407 10405 10405 10404 10403 10402 10400 10398 10397 10395 10395 10394 10392 10392 10391 10390 10389 10389 10388 10387 10387 10387 10386 10386 10386 10385 10385 10384 10384 10384 10384 10383 10384 10384 10384 10383 10383 10383 10383 10384 10384 10384 10383 10383 10383 10383 10383 10383 10383 10382 10382 10382 10382 10382 10382 10381 10380 10380 10379 10379 10378 10377 10377 10375 10375 10374 10373 10372 10371 10370 10369 10369 10367 10367 10366 10365 10364 10364 10363 10362
10409 10407 10405 10404 10404 10402 10401 10400 10399 10397 10397 10395 10394 10392 10391 10390 10389 10388 10387 10386 10385 10385 10384 10384 10383 10382 10382 10382 10382 10381 10381 10381 10380 10380 10380 10379 10379 10379 10379 10380 10379 10379 10379 10379 10379 10379 10380 10380 10380 10379 10379 10379 10379 10379 10379 10379 10379 10378 10378 10377 10377 10377 10376 10375 10374 10374 10373 10372 10372 10371 10370 10369 10369 10367 10367 10365 10365 10364 10363 10362 10361 10360 10360 10359 10358 10357
10402 10400 10399 10398 10397 10396 10395 10394 10392 10391 10390 10389 10387 10386 10385 10384 10384 10382 10382 10381 10380 10379 10379 10379 10378 10377 10377 10377 10377 10377 10377 10377 10377 10376 10375 10375 10375 10375 10375 10375 10375 10375 10375 10375 10375 10375 10376 10376 10376 10375 10375 10375 10375 10375 10375 10375 10374 10374 10374 10373 10372 10372 10371 10370 10370 10369 10369 10368 10367 10366 10365 10364 10364 10362 10362 10360 10360 10359 10358 10357 10356 10355 10355 10354 10354 10352
10395 10394 10392 10391 10390 10390 10389 10387 10386 10385 10384 10383 10382 10380 10380 10379 10378 10377 10376 10375 10375 10374 10374 10374 10373 10372 10372 10372 10372 10372 10372 10372 10372 10372 10371 10371 10370 10370 10370 10371 10371 10371 10370 10371 10372 10372 10372 10372 10372 10372 10372 10371 10371 10371 10370 10370 10370 10370 10369 10369 10368 10367 10367 10366 10365 10364 10364 10363 10362 10361 10360 10359 10359 10357 10357 10356 10355 10354 10353 10352 10352 10350 10350 10349 10349 10348
10389 10387 10386 10385 10384 10384 10382 10381 10380 10379 10378 10377 10376 10375 10374 10373 10372 10372 10371 10370 10370 10369 10369 10369 10368 10367 10367 10368 10367 10367 10367 10368 10368 10368 10367 10367 10367 10367 10367 10367 10367 10367 10367 10367 10367 10368 10368 10368 10368 10368 10368 10367 10367 10367 10366 10366 10365 10365 10364 10364 10364 10363 10362 10361 10360 10360 10359 10358 10357 10356 10355 10354 10354 10352 10352 10351 10350 10349 10349 10347 10347 10345 10345 10344 10344 10343
10382 10381 10380 10379 10378 10377 10376 10375 10374 10373 10372 10371 10370 10369 10369 10368 10367 10367 10365 10365 10365 10365 10364 10364 10364 10363 10363 10363 10363 10363 10364 10364 10364 10364 10364 10364 10363 10363 10363 10364 10364 10364 10363 10363 10364 10364 10364 10364 10364 10364 10364 10363 10363 10362 10362 10362 10361 10360 10360 10359 10359 10358 10357 10357 10356 10355 10354 10353 10352 10351 10350 10349 10349 10347 10347 10346 10345 10344 10344 10342 10342 10340 10340 10339 10339 10337
10376 10375 10374 10374 10372 10371 10370 10369 10368 10367 10367 10365 10365 10364 10364 10363 10362 10362 10360 10360 10360 10360 10360 10360 10359 10359 10359 10359 10359 10359 10359 10360 10360 10360 10360 10360 10360 10359 10359 10360 10360 10360 10360 10359 10360 10360 10360 10360 10359 10359 10359 10359 10359 10358 10357 10357 10357 10356 10355 10355 10354 10354 10353 10352 10351 10350 10349 10349 10347 10346 10345 10344 10344 10342 10342 10341 10340 10339 10338 10337 10336 10335 10335 10334 10333 10332
10370 10369 10369 10367 10366 10365 10364 10364 10362 10362 10361 10360 10360 10359 10359 10359 10358 10357 10357 10357 10357 10356 10355 10355 10355 10355 10355 10355 10355 10355 10355 10355 10356 10357 10357 10357 10356 10355 10356 10357 10357 10356 10356 10355 10355 10355 10355 10355 10355 10355 10355 10355 10354 10354 10353 10352 10352 10351 10350 10350 10349 10349 10348 10347 10346 10345 10344 10343 10342 10341 10340 10339 10339 10337 10337 10336 10335 10334 10333 10332 10331 10330 10329 10329 10328 10327
10364 10364 10362 10362 10360 10360 10359 10358 10357 10357 10356 10355 10355 10355 10354 10354 10354 10353 10352 10352 10352 10352 10352 10351 10351 10351 10351 10351 10351 10351 10351 10352 10352 10354 10354 10353 10352 10352 10353 10353 10353 10352 10353 10352 10352 10351 10350 10351 10351 10351 10350 10350 10350 10349 10348 10347 10347 10346 10345 10345 10344 10344 10343 10342 10341 10340 10339 10338 10337 10336 10335 10334 10333 10332 10332 10330 10330 10329 10328 10327 10326 10325 10324 10323 10322 10322
10359 10357 10357 10356 10355 10354 10354 10353 10352 10352 10351 10351 10350 10350 10350 10349 10349 10349 10349 10349 10348 10348 10348 10347 10347 10347 10347 10347 10347 10347 10347 10348 10349 10350 10350 10350 10349 10349 10349 10349 10349 10349 10349 10349 10348 10347 10346 10346 10347 10347 10347 10345 10345 10344 10344 10343 10342 10342 10341 10340 10340 10339 10338 10337 10336 10335 10334 10333 10332 10331 10330 10329 10328 10327 10327 10325 10324 10324 10322 10322 10320 10320 10319 10318 10317 10317
10353 10352 10351 10350 10350 10349 10349 10348 10347 10347 10347 10346 10346 10345 10345 10345 10345 10345 10345 10344 10344 10344 10344 10344 10344 10344 10344 10344 10344 10344 10344 10344 10345 10347 10347 10346 10345 10345 10346 10345 10345 10345 10345 10345 10344 10343 10342 10342 10341 10342 10342 10341 10340 10340 10339 10339 10338 10337 10336 10335 10335 10334 10333 10332 10331 10330 10329 10328 10327 10326 10325 10324 10323 10322 10321 10320 10319 10318 10317 10316 10315 10314 10314 10312 10312 10311
10347 10347 10346 10345 10345 10344 10344 10344 10343 10342 10342 10342 10342 10342 10341 10341 10341 10341 10341 10340 10340 10340 10340 10340 10340 10340 10340 10340 10340 10340 10340 10341 10342 10343 10343 10342 10342 10342 10342 10342 10342 10341 10341 10340 10340 10339 10339 10337 10337 10337 10337 10337 10336 10335 10335 10334 10333 10332 10332 10330 10329 10329 10327 10327 10326 10325 10324 10323 10322 10320 10320 10319 10318 10317 10316 10315 10314 10313 10312 10310 10310 10309 10308 10307 10306 10305
10342 10342 10341 10340 10340 10340 10339 10339 10339 10339 10338 10338 10337 10337 10337 10337 10337 10337 10337 10337 10337 10337 10337 10337 10337 10337 10337 10337 10337 10337 10337 10338 10339 10339 10339 10339 10339 10338 10338 10338 10338 10337 10337 10336 10335 10335 10334 10334 10333 10333 10332 10332 10332 10331 10330 10329 10328 10327 10326 10325 10324 10323 10322 10322 10321 10320 10319 10318 10317 10315 10314 10314 10312 10312 10310 10309 10309 10307 10306 10305 10304 10303 10302 10302 10300 10300
10337 10337 10337 10336 10335 10335 10335 10335 10334 10334 10334 10334 10334 10334 10334 10334 10333 10334 10334 10334 10334 10334 10334 10334 10334 10334 10334 10334 10334 10334 10334 10334 10335 10335 10335 10335 10335 10334 10334 10334 10334 10333 10332 10332 10331 10330 10330 10329 10329 10329 10329 10327 10327 10327 10326 10325 10324 10322 10321 10320 10319 10318 10317 10317 10316 10315 10314 10313 10312 10310 10309 10308 10307 10306 10305 10304 10303 10302 10300 10299 10299 10297 10297 10295 10295 10295
10333 10332 10332 10332 10331 10331 10330 10330 10330 10330 10330 10330 10330 10330 10330 10330 10330 10330 10330 10330 10330 10330 10330 10330 10331 10331 10331 10330 10330 10330 10330 10330 10330 10331 10331 10331 10330 10330 10329 10329 10329 10329 10328 10327 10327 10327 10326 10325 10325 10325 10325 10324 10322 10322 10321 10320 10319 10317 10316 10315 10314 10313 10312 10311 10310 10310 10309 10307 10306 10305 10304 10302 10302 10300 10299 10299 10297 10296 10295 10294 10293 10292 10291 10290 10289 10289
10329 10328 10328 10327 10327 10327 10326 10326 10325 10325 10325 10325 10325 10325 10326 10326 10326 10326 10326 10327 10327 10327 10327 10327 10327 10327 10327 10327 10327 10327 10326 10326 10326 10327 10327 10326 10326 10325 10325 10324 10324 10324 10324 10323 10322 10322 10322 10321 10320 10320 10320 10319 10318 10317 10315 10315 10314 10312 10311 10310 10309 10308 10307 10305 10305 10304 10303 10302 10300 10299 10298 10297 10296 10295 10294 10293 10292 10290 10289 10288 10287 10286 10285 10284 10284 10283
10324 10324 10324 10323 10323 10322 10322 10322 10322 10322 10322 10322 10322 10322 10322 10322 10322 10322 10323 10323 10323 10323 10324 10324 10324 10324 10324 10324 10323 10323 10322 10322 10322 10322 10322 10322 10321 10321 10320 10320 10320 10320 10320 10319 10319 10318 10317 10317 10316 10315 10315 10314 10314 10312 10312 10310 10309 10307 10306 10305 10304 10302 10301 10300 10299 10299 10297 10296 10295 10294 10292 10292 10290 10289 10288 10287 10286 10285 10284 10282 10282 10280 10280 10279 10278 10277
10320 10319 10319 10319 10319 10319 10318 10318 10318 10318 10318 10318 10318 10319 10319 10319 10319 10319 10319 10319 10319 10320 10320 10320 10320 10320 10319 10319 10319 10319 10318 10317 10317 10317 10317 10317 10317 10317 10317 10316 10315 10315 10315 10315 10315 10314 10313 10312 10311 10310 10309 10309 10308 10307 10307 10306 10305 10303 10302 10300 10299 10297 10295 10294 10294 10292 10292 10291 10290 10288 10287 10285 10285 10284 10282 10282 10280 10279 10278 10277 10276 10275 10274 10273 10272 10271
10315 10315 10315 10315 10315 10315 10315 10314 10314 10314 10314 10314 10315 10315 10315 10315 10315 10315 10315 10316 10316 10316 10315 10315 10315 10315 10315 10315 10314 10314 10314 10313 10313 10313 10313 10313 10313 10313 10313 10312 10312 10312 10311 10310 10310 10309 10308 10307 10306 10305 10305 10304 10303 10302 10302 10301 10300 10299 10298 10295 10293 10291 10290 10289 10287 10287 10286 10285 10284 10282 10281 10280 10279 10278 10277 10276 10275 10274 10272 10271 10270 10269 10268 10267 10266 10265
10311 10311 10311 10311 10311 10311 10311 10311 10311 10311 10311 10311 10311 10311 10312 10312 10312 10312 10312 10312 10312 10312 10312 10312 10311 10311 10311 10311 10310 10310 10310 10310 10310 10310 10310 10309 10309 10309 10309 10309 10308 10307 10306 10305 10305 10304 10304 10302 10301 10300 10299 10299 10298 10297 10296 10296 10295 10295 10294 10291 10288 10286 10284 10283 10281 10280 10280 10279 10278 10277 10275 10274 10273 10272 10271 10270 10269 10268 10267 10265 10264 10263 10262 10261 10260 10259
10307 10307 10307 10307 10307 10307 10307 10307 10307 10307 10307 10307 10307 10307 10307 10308 10308 10308 10308 10308 10307 10307 10307 10308 10307 10307 10307 10307 10307 10307 10307 10307 10307 10307 10306 10305 10305 10305 10304 10304 10303 10302 10302 10300 10300 10299 10298 10297 10296 10295 10294 10293 10292 10291 10290 10290 10290 10290 10289 10286 10284 10281 10279 10277 10275 10275 10274 10272 10272 10271 10270 10268 10267 10266 10265 10264 10263 10262 10260 10259 10258 10257 10256 10255 10254 10253
10304 10304 10304 10304 10304 10304 10304 10304 10304 10304 10304 10304 10304 10304 10304 10304 10304 10304 10304 10304 10304 10304 10304 10304 10304 10304 10304 10304 10304 10304 10304 10304 10303 10302 10302 10301 10300 10300 10299 10299 10298 10297 10297 10295 10294 10294 10293 10292 10291 10290 10289 10288 10287 10285 10284 10284 10284 10284 10282 10281 10279 10276 10273 10270 10270 10269 10268 10266 10265 10264 10263 10262 10261 10260 10259 10258 10257 10255 10254 10253 10252 10251 10250 10249 10248 10247
10300 10300 10300 10300 10300 10300 10300 10300 10300 10300 10300 10300 10300 10300 10300 10300 10300 10300 10300 10300 10300 10300 10300 10301 10301 10301 10300 10300 10300 10300 10299 10299 10299 10298 10297 10297 10296 10295 10294 10294 10293 10292 10292 10290 10289 10288 10287 10287 10285 10285 10284 10283 10282 10280 10279 10278 10277 10277 10276 10275 10273 10270 10268 10265 10264 10263 10261 10260 10259 10258 10257 10256 10255 10254 10252 10251 10250 10249 10248 10247 10246 10245 10244 10243 10242 10241
10296 10297 10297 10297 10297 10297 10297 10297 10297 10297 10297 10296 10296 10296 10297 10297 10297 10297 10297 10297 10297 10297 10297 10297 10297 10297 10297 10296 10296 10295 10295 10294 10294 10294 10293 10292 10291 10290 10289 10289 10288 10287 10286 10285 10284 10283 10282 10280 10280 10279 10279 10277 10276 10274 10273 10272 10271 10270 10269 10268 10267 10265 10262 10261 10259 10257 10255 10254 10252 10251 10250 10250 10249 10247 10245 10245 10244 10243 10242 10241 10240 10239 10238 10237 10236 10235
10293 10293 10293 10293 10293 10293 10293 10293 10293 10293 10293 10293 10293 10293 10293 10294 10294 10294 10294 10294 10294 10294 10294 10294 10294 10293 10292 10292 10292 10291 10290 10290 10289 10289 10288 10287 10287 10285 10285 10284 10283 10282 10280 10280 10279 10278 10277 10275 10274 10273 10272 10271 10270 10269 10267 10266 10265 10264 10262 10262 10260 10259 10257 10255 10254 10252 10250 10248 10246 10245 10244 10243 10242 10240 10239 10238 10237 10236 10235 10235 10234 10233 10232 10231 10230 10229
10289 10289 10290 10290 10290 10290 10290 10290 10290 10290 10290 10290 10290 10290 10290 10290 10290 10290 10290 10290 10290 10290 10290 10290 10290 10289 10289 10288 10287 10287 10286 10285 10285 10284 10283 10282 10282 10280 10280 10279 10277 10277 10275 10274 10273 10272 10270 10270 10269 10267 10266 10265 10263 10262 10260 10260 10259 10257 10256 10255 10254 10253 10251 10250 10248 10247 10245 10242 10240 10239 10238 10237 10235 10234 10233 10232 10231 10230 10229 10229 10228 10227 10226 10225 10224 10223
10287 10287 10287 10287 10287 10287 10287 10287 10287 10287 10287 10287 10287 10287 10287 10287 10287 10287 10287 10287 10287 10287 10286 10285 10285 10285 10284 10284 10284 10283 10282 10281 10280 10279 10279 10277 10277 10275 10274 10274 10272 10271 10270 10269 10267 10266 10265 10264 10263 10262 10261 10259 10257 10255 10254 10253 10252 10251 10250 10249 10248 10247 10245 10244 10242 10241 10239 10237 10235 10233 10232 10230 10229 10227 10226 10225 10224 10224 10223 10222 10222 10221 10220 10219 10218 10217
10284 10284 10284 10284 10284 10284 10284 10284 10285 10285 10284 10284 10284 10284 10284 10284 10284 10284 10284 10284 10283 10283 10282 10282 10281 10280 10280 10280 10279 10279 10278 10277 10276 10275 10274 10273 10272 10270 10269 10268 10267 10265 10264 10263 10262 10260 10259 10258 10257 10257 10255 10254 10252 10250 10247 10247 10246 10245 10244 10243 10242 10240 10239 10238 10236 10235 10233 10231 10229 10227 10226 10225 10223 10222 10220 10219 10217 10217 10216 10216 10215 10215 10214 10213 10212 10210
10281 10281 10281 10282 10282 10282 10282 10282 10282 10282 10281 10281 10281 10281 10280 10280 10280 10280 10280 10280 10279 10279 10279 10278 10277 10277 10276 10275 10275 10274 10274 10272 10272 10270 10269 10269 10267 10266 10264 10263 10261 10260 10258 10257 10255 10254 10253 10252 10251 10250 10250 10249 10247 10245 10242 10240 10239 10239 10238 10237 10235 10235 10233 10232 10230 10229 10227 10225 10224 10222 10220 10219 10217 10215 10214 10212 10211 10210 10210 10209 10209 10209 10208 10207 10206 10205
10278 10278 10279 10279 10279 10279 10279 10279 10279 10278 10278 10278 10278 10277 10277 10277 10277 10277 10277 10276 10275 10275 10274 10274 10273 10272 10272 10271 10270 10270 10269 10268 10267 10266 10265 10264 10263 10262 10260 10258 10257 10255 10253 10251 10249 10248 10247 10245 10244 10243 10243 10244 10242 10240 10237 10235 10233 10232 10231 10230 10229 10229 10227 10225 10224 10223 10221 10219 10218 10216 10215 10213 10211 10210 10209 10207 10205 10204 10203 10202 10202 10202 10202 10201 10200 10199